Wind_Speed
7 2 6 13 12 7 5 5 8 6 6 8 14 9 12 10 7 7 5 8 8 11 4 22 20 28 31 31 30 31 27 24 19 19 12 13 15 10 10 20 17 10 11 6
4 7 13 14 15 10 10 9 11 8 11 17 10 10 10 14 14 11 8 8 10 5 1 15 22 25 33 29 30 28 28 29 24 21 15 15 18 10 15 17 13 6 13 7
9 11 15 15 13 8 4 6 6 7 12 9 7 5 10 10 6 6 8 8 5 6 5 6 12 26 28 32 28 29 30 27 25 23 16 17 16 13 20 16 13 9 10 6
8 12 10 11 10 6 5 11 9 5 5 5 9 4 8 12 12 13 14 11 11 8 4 6 5 14 27 31 30 30 29 27 24 23 16 16 16 19 18 17 12 8 8 6
9 9 10 2 7 5 1 6 2 6 4 4 6 2 5 12 13 17 18 14 13 10 10 7 12 13 25 31 31 31 30 29 25 22 19 17 15 17 15 13 15 15 14 10
9 6 3 2 6 8 11 3 4 4 1 2 4 1 2 9 15 17 16 16 16 12 13 14 25 10 21 28 29 31 30 30 25 20 16 20 15 13 12 16 19 20 13 14
9 9 4 4 6 10 8 3 3 2 3 4 6 5 6 13 10 12 19 17 18 17 17 14 12 14 24 28 30 31 33 33 25 22 22 19 16 12 6 18 19 20 19 17
8 5 8 8 6 4 7 6 5 1 4 6 7 5 3 6 15 8 10 17 17 16 18 19 15 17 25 32 33 31 36 37 31 27 25 19 16 12 11 21 16 16 18 13
6 6 8 7 5 1 8 4 9 4 6 4 1 5 4 13 15 17 16 8 17 18 16 21 22 24 23 28 40 37 38 36 35 32 26 22 17 19 15 19 12 11 10 10
5 3 2 5 6 6 6 6 6 5 4 3 3 2 5 10 17 16 19 19 15 16 15 18 20 26 21 31 36 38 41 38 36 35 30 26 23 19 15 15 12 10 4 9
4 2 4 4 6 5 6 6 5 6 4 2 3 5 4 5 11 16 19 22 21 16 14 18 22 32 25 25 26 34 34 36 34 34 33 28 26 23 22 18 18 14 11 14
6 2 4 3 4 6 4 4 5 4 2 2 4 5 4 4 8 12 20 25 9 9 6 7 19 21 21 21 13 28 30 32 35 35 32 29 25 24 26 24 21 17 17 16
5 2 3 8 9 6 4 3 4 3 5 6 5 3 1 3 6 9 14 16 7 4 2 13 13 13 15 6 14 14 19 31 32 33 33 30 29 27 23 23 24 21 18 17
3 2 4 4 6 3 2 2 3 4 1 3 1 3 3 2 6 9 11 16 4 5 8 10 8 12 15 19 13 7 13 5 8 24 33 33 30 30 31 29 27 27 22 19
3 4 5 9 7 7 6 8 8 7 5 5 9 8 6 7 7 2 2 7 5 8 9 7 6 4 11 13 4 11 19 17 9 7 10 30 33 32 28 27 26 29 24 22
4 4 5 6 7 9 7 9 9 8 4 3 3 1 4 3 3 3 5 5 6 10 8 6 4 6 8 5 7 1 21 19 11 8 20 30 32 31 32 25 22 24 20 16
0 3 3 5 5 1 4 6 7 9 6 5 4 6 5 2 2 2 4 4 4 5 7 9 7 9 10 10 4 7 10 15 6 6 10 38 26 31 26 21 17 17 17 16
2 1 2 3 6 5 1 2 5 6 9 9 10 4 6 4 5 6 5 5 4 3 5 6 10 13 13 10 3 2 6 10 8 3 4 24 23 20 19 20 18 17 16 17
4 3 1 3 3 2 2 2 4 3 6 9 10 12 6 5 5 4 6 6 6 7 7 5 6 7 6 5 5 6 7 6 2 7 17 20 15 18 21 21 16 13 11 12
5 3 5 1 2 4 6 3 3 10 8 16 15 10 3 4 3 3 7 6 6 11 9 9 7 8 7 6 5 8 6 5 5 9 11 14 13 15 15 12 12 12 8 5
1 2 2 3 5 4 3 3 6 3 4 18 11 5 6 1 3 4 7 9 12 13 11 8 9 9 8 8 5 6 8 8 4 7 5 6 8 8 11 13 11 9 9 9
5 5 4 3 2 3 2 5 5 5 14 19 16 12 11 8 4 6 8 7 10 11 10 6 4 6 8 8 7 5 9 11 4 6 12 10 10 12 10 9 6 5 4 5
2 4 3 1 5 5 2 4 3 2 4 9 17 18 14 14 7 6 8 7 12 12 9 5 5 6 8 8 6 5 7 6 3 9 10 14 12 10 6 2 2 3 4 8
6 5 3 3 4 2 3 4 4 6 13 9 5 8 6 12 9 8 8 9 10 13 9 5 6 5 6 6 4 4 4 4 4 10 12 10 10 10 8 7 8 7 8 10
2 6 3 2 2 2 4 2 7 7 10 10 12 10 9 8 7 9 12 10 14 12 10 6 6 4 5 5 3 3 7 11 14 15 15 11 11 9 9 9 10 8 8 7
1 2 2 3 4 4 1 2 2 7 9 10 11 9 7 11 8 12 9 15 14 10 10 10 6 6 4 5 6 4 5 8 11 12 11 10 9 9 11 12 12 9 8 7
Wind_Direction
233 184 227 242 246 201 202 167 149 194 211 181 202 211 188 198 194 175 196 164 179 206 150 172 173 149 154 150 159 158 166 167 175 183 190 177 164 159 158 173 172 169 142 111
284 225 249 250 254 237 188 189 103 62 322 209 199 212 170 187 204 178 174 196 192 131 34 200 183 150 155 159 152 160 169 171 177 186 182 180 172 163 152 171 174 189 160 133
211 238 228 255 271 276 47 260 141 161 218 231 178 213 162 199 179 203 197 181 171 141 149 160 166 155 159 164 166 158 167 174 179 181 192 192 184 179 167 166 171 170 178 160
218 267 252 231 267 266 192 152 124 173 201 227 173 251 186 171 194 201 218 174 183 170 203 165 189 184 165 173 174 171 173 180 188 190 205 203 198 157 174 182 192 184 171 197
248 248 275 216 240 334 217 88 173 185 236 259 256 210 225 148 210 209 208 184 185 184 158 210 211 192 178 168 175 180 179 185 188 190 209 209 190 184 193 209 189 196 187 208
261 302 353 8 308 299 285 144 218 159 148 352 339 78 162 179 216 209 205 198 182 176 177 208 219 186 195 176 177 183 176 180 187 194 199 199 196 179 210 223 217 191 194 187
236 239 197 216 234 264 262 359 332 341 13 226 357 11 233 210 225 212 203 197 186 181 177 210 214 170 191 183 181 180 180 179 190 196 197 194 195 197 186 176 185 190 200 200
228 238 166 220 214 227 231 198 178 177 151 278 359 6 276 36 19 312 236 195 189 190 184 198 206 202 185 189 182 179 183 182 189 196 201 202 203 196 181 173 191 199 207 198
344 65 179 175 187 238 284 254 223 233 212 137 143 330 333 8 5 7 12 192 189 192 197 186 196 200 201 190 184 180 186 186 190 195 200 201 195 206 202 187 198 197 192 210
303 307 163 187 163 218 208 260 355 6 17 337 314 152 256 349 330 348 351 326 296 190 185 195 195 200 215 201 179 178 185 189 191 191 194 202 198 202 202 214 208 208 162 182
285 68 334 121 21 32 356 338 36 99 43 124 23 299 223 360 341 353 332 322 292 246 204 181 187 193 196 180 176 180 183 186 186 191 196 201 204 205 202 214 212 211 183 181
16 325 25 130 23 27 323 72 129 106 216 142 170 254 138 143 28 9 333 307 18 347 287 173 170 168 170 166 151 185 185 186 187 188 197 201 206 208 211 213 216 217 218 202
341 341 20 350 357 345 110 316 89 30 134 185 161 259 272 333 41 8 308 241 137 273 44 65 47 54 63 122 173 19 226 193 191 185 193 200 206 206 216 216 217 218 214 213
91 253 210 203 181 174 226 205 124 162 129 187 336 252 275 120 224 177 257 348 6 86 81 113 123 89 80 72 134 128 339 158 232 193 193 198 207 208 213 216 219 221 223 222
158 275 280 283 189 173 193 229 214 186 188 158 187 165 223 200 224 291 340 351 1 77 55 65 79 118 113 106 86 89 299 11 332 325 317 204 209 213 212 209 215 217 217 217
209 246 288 295 339 182 218 78 66 73 356 45 203 101 180 212 222 269 59 13 0 9 93 98 134 177 149 131 79 257 281 294 318 327 336 311 211 219 217 215 214 216 213 216
70 82 41 305 354 327 286 163 179 180 181 189 129 220 123 303 165 33 110 121 41 26 35 39 37 61 60 69 74 200 233 244 241 345 332 313 240 210 212 213 204 199 204 202
143 240 106 276 323 302 203 259 242 186 123 89 55 110 212 174 128 94 79 103 115 87 65 58 58 49 52 54 19 178 253 196 186 167 224 290 276 208 211 214 215 220 224 229
228 163 160 139 271 255 75 15 8 85 146 136 166 239 226 163 93 85 83 86 93 86 74 89 69 66 52 29 343 329 342 12 127 174 202 231 244 259 235 218 205 213 230 235
291 131 122 74 266 300 224 256 228 158 138 166 180 192 168 152 137 217 148 122 92 69 68 71 66 57 54 29 334 312 313 322 287 263 237 222 224 215 209 159 140 145 141 127
45 22 161 243 228 102 281 273 299 14 199 165 140 138 113 360 230 160 95 84 101 108 74 58 49 44 16 344 334 317 331 347 335 208 192 168 183 181 129 115 104 107 117 114
194 161 210 240 258 139 292 52 90 210 111 142 157 162 139 161 167 141 130 129 114 90 75 64 48 34 357 354 5 49 27 349 10 132 134 134 119 103 105 108 94 95 111 107
180 160 165 94 183 203 94 138 207 98 147 142 144 171 166 154 156 147 129 116 107 106 101 77 75 43 1 3 25 27 21 4 67 144 125 127 118 119 118 128 42 37 109 120
360 29 93 88 48 205 184 141 31 56 91 97 110 98 95 132 148 150 134 120 101 120 109 80 60 38 18 3 11 38 44 88 95 151 132 131 126 135 130 125 104 102 94 114
262 342 83 92 61 43 58 91 137 88 102 100 83 78 64 85 90 124 109 119 123 121 117 113 107 82 41 25 29 75 93 123 116 113 111 114 121 125 122 117 108 108 95 96
328 330 161 215 168 108 237 311 27 129 129 124 117 104 95 108 91 93 109 120 127 132 142 138 121 110 69 66 63 86 118 129 125 119 116 117 119 129 126 118 110 105 92 80
Height
757 777 788 771 757 754 753 773 782 794 778 786 785 786 787 785 790 794 792 791 792 791 797 795 800 804 810 813 819 822 827 829 833 836 840 841 843 845 847 847 850 854 858 858
771 785 758 745 743 747 753 768 783 798 788 797 779 784 781 782 781 784 789 792 789 789 794 799 798 803 807 814 817 821 826 829 832 836 840 841 844 846 846 846 850 852 856 858
775 761 741 744 747 749 753 765 776 787 775 761 773 786 785 782 780 784 783 784 789 792 793 797 798 802 807 812 815 818 824 828 832 836 839 841 844 845 846 846 848 850 853 859
757 738 742 746 750 745 768 745 753 763 778 805 767 816 788 784 786 782 780 783 786 789 789 791 798 804 804 809 813 815 821 826 830 834 838 840 842 843 843 844 846 848 849 853
762 747 748 746 745 735 754 737 748 754 773 776 774 793 782 786 792 779 771 773 778 780 788 789 795 801 804 806 810 815 818 824 827 831 835 837 839 840 842 843 846 848 850 851
745 726 731 735 731 734 730 744 749 756 777 812 784 795 800 789 771 767 766 766 772 776 783 785 786 794 802 805 808 812 816 821 824 828 832 834 837 840 841 842 844 848 849 850
750 744 730 728 749 740 744 763 810 816 817 817 784 788 787 762 755 757 758 760 764 770 777 780 782 790 796 802 806 808 813 817 822 826 830 833 834 838 840 839 841 844 847 850
774 781 744 730 744 753 755 765 808 818 823 815 780 800 786 775 767 755 750 754 762 769 770 775 777 781 789 796 801 804 807 811 817 822 827 830 833 834 837 839 841 843 845 849
770 762 730 727 728 737 758 773 751 779 780 808 803 788 761 766 773 768 769 758 761 764 767 770 772 774 783 788 790 795 802 806 810 816 822 827 831 834 836 837 841 844 844 845
747 770 732 727 725 730 745 742 784 789 817 816 812 809 807 788 788 780 779 782 773 758 763 767 769 771 775 783 786 790 795 799 803 809 816 822 826 830 833 836 838 840 842 843
737 757 751 732 762 767 768 773 772 793 812 824 831 819 791 799 796 791 782 785 775 761 757 762 763 765 774 779 786 789 793 795 800 806 811 817 822 826 830 833 834 837 841 843
743 755 780 780 755 748 751 764 771 806 817 818 822 814 782 791 788 789 792 778 765 763 754 754 756 766 772 775 783 790 792 795 796 799 806 812 818 822 826 829 832 834 836 839
746 769 796 795 776 759 769 762 760 771 793 814 824 811 781 777 779 782 777 786 778 769 765 763 771 773 776 776 776 790 797 795 795 796 802 808 812 816 822 826 828 831 833 835
741 760 778 799 787 772 776 763 760 773 800 803 802 797 785 785 783 790 787 755 764 763 760 771 777 778 783 785 783 789 794 798 801 798 798 803 809 811 814 820 825 827 829 832
746 773 761 759 753 761 764 762 760 776 781 793 790 782 786 787 781 778 772 770 767 763 767 768 775 777 777 784 788 784 779 797 801 800 805 801 805 809 811 812 816 821 825 828
739 770 757 766 747 757 767 766 758 771 776 782 781 789 778 781 779 776 772 775 776 776 774 776 779 779 777 780 778 775 786 803 798 801 804 808 803 808 810 811 812 815 819 821
747 762 773 784 757 754 780 769 763 765 776 774 790 781 785 789 779 780 776 776 774 778 778 780 782 782 783 781 777 782 790 794 799 795 797 812 803 804 808 811 811 812 815 818
750 758 768 788 775 802 768 747 747 754 762 776 778 776 776 781 779 773 772 772 774 777 780 782 786 788 787 786 785 788 796 798 791 789 795 804 805 802 802 805 807 809 811 814
736 756 775 791 792 770 761 751 751 759 788 773 785 780 777 774 775 777 773 775 775 774 779 782 784 788 792 794 792 793 794 795 795 796 796 794 795 799 803 802 801 804 807 810
737 743 771 778 793 798 772 744 736 745 796 780 778 783 782 776 790 788 777 778 781 780 782 783 785 787 791 794 795 794 795 796 794 790 792 797 797 799 798 798 799 799 802 806
760 763 774 781 785 773 749 743 739 778 791 774 775 785 786 789 783 778 774 779 782 784 786 787 788 788 790 792 792 790 787 787 788 787 785 791 794 795 795 797 800 801 802 802
767 776 779 774 778 792 745 748 770 762 754 767 775 775 773 776 775 778 779 782 784 785 785 788 792 792 789 789 788 787 785 784 782 786 788 791 792 795 795 797 800 801 802 800
764 757 766 764 775 750 741 749 747 746 754 757 762 771 768 772 777 777 782 784 785 789 792 793 794 793 791 788 786 787 787 786 785 787 789 790 792 795 796 795 798 801 802 800
746 741 762 758 755 750 744 745 745 744 754 760 760 761 763 770 774 776 780 785 788 793 793 795 795 795 793 791 789 789 789 789 788 788 789 790 793 796 797 801 801 803 805 807
757 752 754 757 750 744 749 746 744 747 752 756 759 763 767 768 772 776 781 787 792 794 796 798 797 796 795 794 793 792 792 792 793 794 794 794 794 797 799 799 803 809 810 809
753 753 762 766 754 755 751 745 743 748 752 756 762 767 768 771 776 778 784 787 791 793 794 796 796 796 797 797 796 795 794 794 794 796 797 798 800 802 803 803 807 808 808 810